Tracking 19846 objects as of 18-Sep-2019
HD Live streaming from Space Station
objects crossing your sky now

COSMOS 829

Track COSMOS 829 now!
10-day predictions
COSMOS 829 is classified as:


NORAD ID: 8893
Int'l Code: 1976-054E
Perigee: 1,456.7 km
Apogee: 1,498.0 km
Inclination: 74.0 °
Period: 115.3 minutes
Semi major axis: 7848 km
RCS: 0.7039 m2 (medium)
Launch date: June 15, 1976
Source: Commonwealth of Independent States (former USSR) (CIS)
Launch site: PLESETSK MISSILE AND SPACE COMPLEX (PKMTR)
aabbcc
Your satellite tracking list
Your tracking list is empty




NASA's NSSDC Master Catalog

Two Line Element Set (TLE):
1  8893U 76054E   19260.82444295 -.00000006  00000-0  66978-4 0  9993
2  8893  74.0040  16.8491 0026292 261.0379 215.1992 12.48638927971919
Source of the keplerian elements: AFSPC